﻿Platform ID No.;WMO ID No.;Obs. Date;Latitude;Longitude;Loc. quality;Level;AIR PRESS TEND;AIR PRESSURE;BATTERY;HK 1;HK 2;SST;SUBMER
53001;2501661;2020-01-06 06:04:00;76.9993;-6.3123;G;0.0;-0.9;990.4;-2.9;10.0;100.0;1.587;-1.84;1.587
53001;2501661;2020-01-06 05:05:00;77.0028;-6.2499;G;0.0;4.0;995.4;-2.9;10.0;100.0;0.0;-1.84;0.0
53001;2501661;2020-01-06 04:04:00;77.0091;-6.192;G;0.0;2.3;994.0;-3.4;10.0;100.0;0.0;-1.84;0.0
53001;2501661;2020-01-06 03:04:00;77.0164;-6.1417;G;0.0;-0.4;991.3;-3.9;10.0;100.0;0.0;-2.0;0.0
53001;2501661;2020-01-06 02:05:00;77.0232;-6.1042;G;0.0;-0.5;991.4;-4.3;10.0;100.0;0.0;-2.08;0.0
53001;2501661;2020-01-06 01:05:00;77.0289;-6.0791;G;0.0;-0.3;991.7;-4.6;10.0;100.0;0.0;-2.08;0.0
53001;2501661;2020-01-06 00:05:00;77.0337;-6.0562;G;0.0;-0.3;991.7;-4.7;10.0;100.0;0.0;-1.92;0.0
53001;2501661;2020-01-05 23:05:00;77.0379;-6.0306;G;0.0;-0.1;991.9;-4.9;10.0;100.0;0.0;-1.92;0.0
53001;2501661;2020-01-05 22:04:00;77.0415;-6.0033;G;0.0;0.1;992.0;-4.9;10.0;100.0;0.0;-2.0;0.0
53001;2501661;2020-01-05 21:04:00;77.0443;-5.9728;G;0.0;0.0;992.0;-4.9;10.0;100.0;0.0;-1.84;0.0
53001;2501661;2020-01-05 20:04:00;77.047;-5.9346;G;0.0;-0.2;992.0;-5.1;10.0;100.0;0.0;-1.84;0.0
53001;2501661;2020-01-05 19:04:00;77.0492;-5.8916;G;0.0;-0.5;991.9;-5.3;10.0;100.0;0.0;-1.84;0.0
53001;2501661;2020-01-05 18:05:00;77.0516;-5.8424;G;0.0;-0.8;992.0;-5.2;10.0;100.0;0.0;-1.84;0.0
53001;2501661;2020-01-05 17:05:00;77.0549;-5.7928;G;0.0;-0.9;992.2;-5.1;10.0;100.0;0.0;-1.92;0.0
53001;2501661;2020-01-05 16:05:00;77.0589;-5.7443;G;0.0;-1.1;992.4;-5.4;10.0;100.0;0.0;-1.84;0.0
53001;2501661;2020-01-05 15:05:00;77.0638;-5.6993;G;0.0;-0.9;992.8;-6.0;10.0;100.0;0.0;-1.84;0.0
53001;2501661;2020-01-05 14:05:00;77.0681;-5.6568;G;0.0;-1.0;993.1;-6.3;10.0;100.0;0.0;-2.32;0.0
53001;2501661;2020-01-05 13:05:00;77.0712;-5.6195;G;0.0;-1.0;993.5;-6.6;10.0;100.0;0.0;-1.76;0.0
53001;2501661;2020-01-05 12:05:00;77.0707;-5.5841;G;0.0;-1.0;993.7;-6.2;10.0;100.0;0.0;-1.68;0.0
53001;2501661;2020-01-05 11:04:00;77.0687;-5.5536;G;0.0;-0.9;994.1;-5.9;10.0;100.0;0.0;-1.6;0.0
53001;2501661;2020-01-05 10:04:00;77.0631;-5.5238;G;0.0;-0.9;994.5;-5.9;10.0;100.0;0.0;-1.44;0.0
53001;2501661;2020-01-05 09:05:00;77.0541;-5.4906;G;0.0;-1.4;994.7;-6.0;10.0;100.0;0.0;-1.36;0.0
53001;2501661;2020-01-05 08:05:00;77.0455;-5.4522;G;0.0;-1.9;995.0;-6.0;10.0;100.0;0.0;-1.28;0.0
53001;2501661;2020-01-05 07:05:00;77.0391;-5.4084;G;0.0;-2.2;995.4;-6.3;10.0;100.0;0.0;-1.2;0.0
53001;2501661;2020-01-05 06:05:00;77.0348;-5.35;G;0.0;9.9;996.1;-7.0;10.0;100.0;0.0;-1.12;0.0
53001;2501661;2020-01-05 05:05:00;77.0336;-5.2827;G;0.0;13.8;996.9;-7.6;10.0;100.0;0.0;-1.04;0.0
53001;2501661;2020-01-05 04:05:00;77.0345;-5.2057;G;0.0;16.7;997.6;-9.1;10.0;100.0;0.0;-0.96;0.0
53001;2501661;2020-01-05 03:04:00;77.035;-5.124;G;0.0;7.7;986.2;-10.5;10.0;100.0;0.0;-1.2;0.0
53001;2501661;2020-01-05 02:04:00;77.0358;-5.0525;G;0.0;6.4;983.1;-12.0;10.0;100.0;0.0;-1.36;0.0
53001;2501661;2020-01-05 01:04:00;77.0361;-4.979;G;0.0;5.7;980.9;-13.3;10.0;100.0;0.0;-1.52;0.0
53001;2501661;2020-01-05 00:04:00;77.0372;-4.9067;G;0.0;4.1;978.5;-15.1;10.0;100.0;0.0;-1.52;0.0
53001;2501661;2020-01-04 23:05:00;77.0383;-4.8313;G;0.0;1.1;976.7;-16.8;10.0;100.0;0.0;-1.6;0.0
53001;2501661;2020-01-04 22:05:00;77.0411;-4.7588;G;0.0;0.9;975.2;-18.0;10.0;100.0;0.0;-1.6;0.0
53001;2501661;2020-01-04 21:05:00;77.0439;-4.6995;G;0.0;-5.8;974.4;-18.8;10.0;100.0;0.0;-1.6;0.0
53001;2501661;2020-01-04 20:05:00;77.0461;-4.6507;G;0.0;-4.8;975.6;-19.3;10.0;100.0;0.0;-1.6;0.0
53001;2501661;2020-01-04 19:05:00;77.048;-4.6089;G;0.0;-14.1;974.3;-20.8;10.0;100.0;0.0;-1.6;0.0
53001;2501661;2020-01-04 18:05:00;77.0512;-4.5756;G;0.0;-6.1;980.2;-20.6;10.0;100.0;0.0;-1.6;0.0
53001;2501661;2020-01-04 17:05:00;77.0553;-4.5531;G;0.0;-7.0;980.4;3.8;10.0;100.0;0.0;-1.84;0.0
53001;2501661;2020-01-04 16:04:00;77.0606;-4.5406;G;0.0;0.2;988.4;-20.1;10.0;100.0;0.0;-1.6;0.0
53001;2501661;2020-01-04 15:04:00;77.067;-4.5366;G;0.0;-2.4;986.3;-20.0;10.0;100.0;11.111;-1.6;11.111
53001;2501661;2020-01-04 14:04:00;77.0742;-4.5415;G;0.0;-1.2;987.4;-20.3;10.0;100.0;30.159;-1.52;30.159
53001;2501661;2020-01-04 13:05:00;77.0813;-4.5565;G;0.0;-0.9;988.2;-19.8;10.0;100.0;100.0;-1.44;100.0
53001;2501661;2020-01-04 12:04:00;77.0875;-4.5813;G;0.0;-0.5;988.7;-17.1;10.0;100.0;100.0;-1.52;100.0
53001;2501661;2020-01-04 11:05:00;77.0923;-4.6014;G;0.0;-3.1;988.6;-17.8;10.0;100.0;100.0;-1.52;100.0
53001;2501661;2020-01-04 10:05:00;77.0951;-4.6175;G;0.0;0.0;989.1;-18.6;10.0;100.0;100.0;-1.52;100.0
53001;2501661;2020-01-04 09:05:00;77.0965;-4.6252;G;0.0;-2.7;989.2;-19.1;10.0;100.0;96.825;-1.44;96.825
53001;2501661;2020-01-04 08:05:00;77.0985;-4.6278;G;0.0;-6.6;991.7;-18.1;10.0;100.0;58.73;-1.52;58.73
53001;2501661;2020-01-04 07:04:00;77.1028;-4.6289;G;0.0;-6.7;989.1;-31.4;10.0;100.0;0.0;-1.44;0.0
53001;2501661;2020-01-04 06:04:00;77.109;-4.632;G;0.0;-0.5;991.9;-18.1;10.0;100.0;47.619;-1.44;47.619
53001;2501661;2020-01-04 05:04:00;77.1161;-4.6283;G;0.0;6.4;998.3;-16.4;10.0;100.0;100.0;-1.6;100.0
53001;2501661;2020-01-04 04:05:00;77.1226;-4.6237;G;0.0;-1.1;995.8;-16.1;10.0;100.0;100.0;-1.52;100.0
53001;2501661;2020-01-04 03:05:00;77.1332;-4.6221;G;0.0;-6.0;992.4;-18.1;10.0;100.0;100.0;-1.6;100.0
53001;2501661;2020-01-04 02:05:00;77.1466;-4.6204;G;0.0;-6.7;991.9;-18.3;10.0;100.0;74.603;-1.6;74.603
53001;2501661;2020-01-04 01:05:00;77.1626;-4.6204;G;0.0;-1.5;996.9;-17.0;10.0;100.0;31.746;-1.6;31.746
53001;2501661;2020-01-04 00:05:00;77.1793;-4.6232;G;0.0;-1.2;998.4;-16.5;10.0;100.0;11.111;-1.6;11.111
53001;2501661;2020-01-03 23:05:00;77.1977;-4.6329;G;0.0;0.1;998.6;-15.3;10.0;100.0;15.873;-1.6;15.873
53001;2501661;2020-01-03 22:04:00;77.2159;-4.6549;G;0.0;-1.1;998.4;-14.4;10.0;100.0;15.873;-1.68;15.873
53001;2501661;2020-01-03 21:04:00;77.235;-4.6808;G;0.0;1.9;999.6;-15.8;10.0;100.0;46.032;-1.6;46.032
53001;2501661;2020-01-03 20:04:00;77.2539;-4.7153;G;0.0;-1.2;998.5;-17.5;10.0;100.0;57.143;-1.6;57.143
53001;2501661;2020-01-03 19:04:00;77.2696;-4.7423;G;0.0;-2.1;999.5;-17.1;10.0;100.0;100.0;-1.44;100.0
53001;2501661;2020-01-03 18:05:00;77.2866;-4.759;G;0.0;-3.5;997.7;-18.3;10.0;100.0;96.825;-1.28;96.825
53001;2501661;2020-01-03 17:05:00;77.305;-4.761;G;0.0;-1.6;999.7;-15.8;10.0;100.0;100.0;-0.4;100.0
53001;2501661;2020-01-03 16:05:00;77.3271;-4.752;G;0.0;0.5;1001.6;-18.8;10.0;100.0;57.143;-0.4;57.143
53001;2501661;2020-01-03 15:05:00;77.351;-4.7151;G;0.0;0.3;1001.2;-17.3;10.0;100.0;17.46;-1.36;17.46
53001;2501661;2020-01-03 14:05:00;77.3781;-4.6524;G;0.0;0.9;1001.3;-3.8;10.0;100.0;0.0;-1.36;0.0
53001;2501661;2020-01-03 13:05:00;77.4151;-4.5765;G;0.0;0.5;1001.1;-5.4;10.0;100.0;0.0;-1.84;0.0
53001;2501661;2020-01-03 12:05:00;77.4584;-4.5032;G;0.0;3.4;1000.9;-2.9;10.0;100.0;1.587;-1.76;1.587
53001;2501661;2020-01-03 11:04:00;77.5026;-4.4468;G;0.0;0.9;1000.4;-3.5;10.0;100.0;0.0;-1.36;0.0
53001;2501661;2020-01-03 10:04:00;77.546;-4.3951;G;0.0;1.6;1000.6;-6.9;10.0;100.0;0.0;-1.84;0.0
53001;2501661;2020-01-03 09:05:00;77.5866;-4.3482;G;0.0;-1.0;997.5;-5.6;10.0;100.0;0.0;-1.84;0.0
53001;2501661;2020-01-03 08:05:00;77.623;-4.2975;G;0.0;1.6;999.5;-8.1;10.0;100.0;0.0;-1.84;0.0
53001;2501661;2020-01-03 07:05:00;77.6545;-4.2268;G;0.0;11.5;999.0;-7.9;10.0;100.0;0.0;-1.84;0.0
53001;2501661;2020-01-03 06:05:00;77.6871;-4.0995;G;0.0;1.0;998.5;-4.9;10.0;100.0;0.0;-1.84;0.0
53001;2501661;2020-01-03 05:05:00;77.7212;-3.9606;G;0.0;3.9;997.9;-2.8;10.0;100.0;1.587;-1.92;1.587
53001;2501661;2020-01-03 04:05:00;77.76;-3.8131;G;0.0;7.2;987.5;-13.5;10.0;100.0;68.254;-1.76;68.254
53001;2501661;2020-01-03 03:05:00;77.7964;-3.7093;G;0.0;21.2;997.5;-14.1;10.0;100.0;17.46;-1.92;17.46
53001;2501661;2020-01-03 02:04:00;77.8289;-3.6213;G;0.0;16.3;994.0;-10.5;10.0;100.0;41.27;-2.0;41.27
53001;2501661;2020-01-03 01:05:00;77.8555;-3.5645;G;0.0;2.0;980.3;-13.7;10.0;100.0;73.016;-1.84;73.016
53001;2501661;2020-01-03 00:04:00;77.8776;-3.5186;G;0.0;-3.2;976.3;-13.5;10.0;100.0;0.0;-2.0;0.0
53001;2501661;2020-01-02 23:05:00;77.9005;-3.4771;G;0.0;-13.8;977.7;-12.5;10.0;100.0;0.0;-2.16;0.0
53001;2501661;2020-01-02 22:05:00;77.9244;-3.4395;G;0.0;-12.6;978.3;-11.6;10.0;100.0;0.0;-3.2;0.0
53001;2501661;2020-01-02 21:05:00;77.9467;-3.3956;G;0.0;-10.6;979.5;-10.2;10.0;100.0;0.0;-1.84;0.0
53001;2501661;2020-01-02 20:05:00;77.9714;-3.3189;G;0.0;1.8;991.5;-2.6;10.0;100.0;0.0;-1.84;0.0
53001;2501661;2020-01-02 19:05:00;77.9968;-3.2352;G;0.0;2.1;990.9;-4.1;10.0;100.0;0.0;-1.84;0.0
53001;2501661;2020-01-02 18:05:00;78.021;-3.1619;G;0.0;1.8;990.1;-4.4;10.0;100.0;0.0;-1.92;0.0
53001;2501661;2020-01-02 17:05:00;78.0399;-3.0902;G;0.0;2.3;989.7;-4.5;10.0;100.0;0.0;-1.84;0.0
53001;2501661;2020-01-02 16:04:00;78.0542;-3.0188;G;0.0;2.1;988.8;-4.6;10.0;100.0;0.0;-1.92;0.0
53001;2501661;2020-01-02 15:04:00;78.0594;-2.961;G;0.0;2.3;988.3;-4.8;10.0;100.0;0.0;-1.92;0.0
53001;2501661;2020-01-02 14:05:00;78.0564;-2.9266;G;0.0;1.4;987.4;-4.9;10.0;100.0;0.0;-2.0;0.0
53001;2501661;2020-01-02 13:05:00;78.0539;-2.8872;G;0.0;0.8;986.7;-4.9;10.0;100.0;0.0;-2.08;0.0
53001;2501661;2020-01-02 12:05:00;78.0525;-2.8607;G;0.0;0.3;986.0;-5.2;10.0;100.0;0.0;-2.16;0.0
53001;2501661;2020-01-02 11:05:00;78.0535;-2.8161;G;0.0;0.5;986.0;-5.3;10.0;100.0;0.0;-2.16;0.0
53001;2501661;2020-01-02 10:05:00;78.0533;-2.7491;G;0.0;0.6;985.9;-5.5;10.0;100.0;0.0;-2.24;0.0
53001;2501661;2020-01-02 09:05:00;78.0512;-2.6725;G;0.0;0.6;985.7;-5.6;10.0;100.0;0.0;-2.24;0.0
53001;2501661;2020-01-02 08:04:00;78.0492;-2.5762;G;0.0;0.1;985.5;-5.8;10.0;100.0;0.0;-2.32;0.0
53001;2501661;2020-01-02 07:04:00;78.0495;-2.4676;G;0.0;-0.2;985.3;-5.8;10.0;100.0;0.0;-2.32;0.0
53001;2501661;2020-01-02 06:04:00;78.0503;-2.364;G;0.0;-0.7;985.1;-5.9;10.0;100.0;0.0;-2.32;0.0
53001;2501661;2020-01-02 05:04:00;78.0509;-2.2702;G;0.0;-0.7;985.4;-6.0;10.0;100.0;0.0;-2.32;0.0
53001;2501661;2020-01-02 04:05:00;78.0528;-2.1897;G;0.0;-0.4;985.5;-6.0;10.0;100.0;0.0;-2.32;0.0
53001;2501661;2020-01-02 03:05:00;78.0563;-2.1181;G;0.0;-0.9;985.8;-6.0;10.0;100.0;0.0;-2.32;0.0
53001;2501661;2020-01-02 02:05:00;78.0579;-2.0619;G;0.0;-1.5;986.1;-5.9;10.0;100.0;0.0;-2.32;0.0
53001;2501661;2020-01-02 01:05:00;78.0595;-2.0317;G;0.0;-2.3;985.9;-6.0;10.0;100.0;0.0;-2.32;0.0
53001;2501661;2020-01-02 00:05:00;78.0642;-2.0139;G;0.0;-2.3;986.7;-5.9;10.0;100.0;0.0;-2.32;0.0
53001;2501661;2020-01-01 23:04:00;78.0693;-1.9983;G;0.0;-1.6;987.6;-5.9;10.0;100.0;0.0;-2.32;0.0
53001;2501661;2020-01-01 22:05:00;78.0744;-1.9793;G;0.0;-0.8;988.2;-5.9;10.0;100.0;0.0;-2.32;0.0
53001;2501661;2020-01-01 21:04:00;78.0782;-1.9601;G;0.0;-0.4;989.0;-5.8;10.0;100.0;0.0;-2.32;0.0
53001;2501661;2020-01-01 20:04:00;78.0816;-1.938;G;0.0;-0.3;989.2;-5.8;10.0;100.0;0.0;-2.32;0.0
53001;2501661;2020-01-01 19:04:00;78.0859;-1.9273;G;0.0;-0.5;989.0;-5.8;10.0;100.0;0.0;-2.24;0.0
53001;2501661;2020-01-01 18:05:00;78.0909;-1.927;G;0.0;-0.2;989.4;-5.8;10.0;100.0;0.0;-2.32;0.0
53001;2501661;2020-01-01 17:05:00;78.096;-1.9302;G;0.0;-0.7;989.5;-5.8;10.0;100.0;0.0;-2.24;0.0
53001;2501661;2020-01-01 16:05:00;78.1009;-1.9344;G;0.0;-0.7;989.5;-5.8;10.0;100.0;0.0;-2.24;0.0
53001;2501661;2020-01-01 15:05:00;78.1064;-1.9409;G;0.0;-0.7;989.6;-5.7;10.0;100.0;0.0;-2.24;0.0
53001;2501661;2020-01-01 14:05:00;78.1128;-1.9483;G;0.0;-0.4;990.2;-5.7;10.0;100.0;0.0;-2.24;0.0
53001;2501661;2020-01-01 13:04:00;78.12;-1.9578;G;0.0;0.0;990.2;-5.6;10.0;100.0;0.0;-2.24;0.0
53001;2501661;2020-01-01 12:04:00;78.1255;-1.9634;G;0.0;0.2;990.3;-5.6;10.0;100.0;0.0;-2.24;0.0
53001;2501661;2020-01-01 11:04:00;78.1309;-1.9656;G;0.0;0.7;990.6;-5.6;10.0;100.0;0.0;-2.24;0.0
53001;2501661;2020-01-01 10:04:00;78.1365;-1.9662;G;0.0;0.9;990.2;-5.6;10.0;100.0;0.0;-2.24;0.0
53001;2501661;2020-01-01 09:04:00;78.1418;-1.9608;G;0.0;0.8;990.1;-5.6;10.0;100.0;0.0;-2.24;0.0
53001;2501661;2020-01-01 08:05:00;78.1471;-1.9541;G;0.0;0.5;989.9;-5.6;10.0;100.0;0.0;-2.16;0.0
53001;2501661;2020-01-01 07:05:00;78.1521;-1.9463;G;0.0;0.0;989.3;-5.6;10.0;100.0;0.0;-2.24;0.0
53001;2501661;2020-01-01 06:04:00;78.1559;-1.935;G;0.0;0.1;989.3;-5.6;10.0;100.0;0.0;-2.16;0.0
53001;2501661;2020-01-01 05:05:00;78.1598;-1.9164;G;0.0;0.4;989.4;-5.6;10.0;100.0;0.0;-2.16;0.0
53001;2501661;2020-01-01 04:05:00;78.1631;-1.8906;G;0.0;0.3;989.3;-5.6;10.0;100.0;0.0;-2.24;0.0
53001;2501661;2020-01-01 03:04:00;78.1652;-1.8571;G;0.0;0.1;989.2;-5.6;10.0;100.0;0.0;-2.24;0.0
53001;2501661;2020-01-01 02:04:00;78.1659;-1.8214;G;0.0;0.1;989.0;-5.7;10.0;100.0;0.0;-2.16;0.0
53001;2501661;2020-01-01 01:05:00;78.1664;-1.7777;G;0.0;-0.2;989.0;-5.7;10.0;100.0;0.0;-2.16;0.0
53001;2501661;2020-01-01 00:05:00;78.1679;-1.7188;G;0.0;-0.4;989.1;-5.7;10.0;100.0;0.0;-2.16;0.0
53001;2501661;2019-12-31 23:04:00;78.1721;-1.6507;G;0.0;-0.7;988.9;-5.7;10.0;100.0;0.0;-2.16;0.0
53001;2501661;2019-12-31 22:05:00;78.1779;-1.5823;G;0.0;-0.6;989.2;-5.7;10.0;100.0;0.0;-2.16;0.0
53001;2501661;2019-12-31 21:05:00;78.1849;-1.5144;G;0.0;-0.2;989.5;-5.8;10.0;100.0;0.0;-2.16;0.0
53001;2501661;2019-12-31 20:05:00;78.1919;-1.4527;G;0.0;-0.6;989.6;-5.7;10.0;100.0;0.0;-2.16;0.0
53001;2501661;2019-12-31 19:05:00;78.1967;-1.3884;G;0.0;-0.7;989.8;-5.8;10.0;100.0;0.0;-2.16;0.0
53001;2501661;2019-12-31 18:04:00;78.2006;-1.3159;G;0.0;-0.8;989.7;-5.8;10.0;100.0;0.0;-2.16;0.0
53001;2501661;2019-12-31 17:04:00;78.2045;-1.2477;G;0.0;-0.3;990.2;-5.8;10.0;100.0;0.0;-2.16;0.0
53001;2501661;2019-12-31 16:04:00;78.2079;-1.182;G;0.0;-0.4;990.5;-5.8;10.0;100.0;0.0;-2.16;0.0
53001;2501661;2019-12-31 15:04:00;78.2123;-1.1214;G;0.0;-0.3;990.5;-5.8;10.0;100.0;0.0;-2.16;0.0
53001;2501661;2019-12-31 14:05:00;78.2205;-1.0593;G;0.0;-0.6;990.5;-5.8;10.0;100.0;0.0;-2.16;0.0
53001;2501661;2019-12-31 13:05:00;78.2308;-1.0136;G;0.0;-0.2;990.9;-5.9;10.0;100.0;0.0;-2.16;0.0
53001;2501661;2019-12-31 12:05:00;78.2445;-0.9827;G;0.0;-0.4;990.8;-5.9;10.0;100.0;0.0;-2.16;0.0
53001;2501661;2019-12-31 11:05:00;78.2595;-0.9698;G;0.0;0.3;991.1;-6.0;10.0;100.0;0.0;-2.16;0.0
53001;2501661;2019-12-31 10:05:00;78.2731;-0.973;G;0.0;0.5;991.1;-6.0;10.0;100.0;0.0;-2.16;0.0
53001;2501661;2019-12-31 09:05:00;78.2859;-0.9925;G;0.0;1.0;991.2;-6.0;10.0;100.0;0.0;-2.16;0.0
53001;2501661;2019-12-31 08:04:00;78.2951;-1.0207;G;0.0;0.7;990.8;-6.0;10.0;100.0;0.0;-2.16;0.0
53001;2501661;2019-12-31 07:04:00;78.2996;-1.0505;G;0.0;0.5;990.6;-6.1;10.0;100.0;0.0;-2.16;0.0
53001;2501661;2019-12-31 06:04:00;78.3009;-1.066;G;0.0;0.1;990.2;-6.1;10.0;100.0;0.0;-2.16;0.0
53001;2501661;2019-12-31 05:04:00;78.3011;-1.0632;G;0.0;0.0;990.1;-5.7;10.0;100.0;0.0;-2.16;0.0
53001;2501661;2019-12-31 04:05:00;78.3023;-1.0483;G;0.0;0.1;990.1;-6.2;10.0;100.0;0.0;-2.08;0.0
53001;2501661;2019-12-31 03:04:00;78.3057;-1.0332;G;0.0;0.1;990.1;-6.2;10.0;100.0;0.0;-2.16;0.0
53001;2501661;2019-12-31 02:05:00;78.3127;-1.0137;G;0.0;0.1;990.1;-6.3;10.0;100.0;0.0;-2.08;0.0
53001;2501661;2019-12-31 01:05:00;78.3225;-0.9956;G;0.0;0.1;990.0;-6.3;10.0;100.0;0.0;-2.08;0.0
53001;2501661;2019-12-31 00:05:00;78.3356;-0.9833;G;0.0;0.1;990.0;-6.4;10.0;100.0;0.0;-2.08;0.0
53001;2501661;2019-12-30 23:05:00;78.3499;-0.9803;G;0.0;0.1;990.0;-6.4;10.0;100.0;0.0;-2.08;0.0
53001;2501661;2019-12-30 22:04:00;78.366;-0.9915;G;0.0;0.2;989.9;-6.5;10.0;100.0;0.0;-2.08;0.0
53001;2501661;2019-12-30 21:04:00;78.382;-1.0177;G;0.0;0.5;989.9;-6.6;10.0;100.0;0.0;-2.08;0.0
53001;2501661;2019-12-30 20:04:00;78.3954;-1.0646;G;0.0;0.9;989.9;-6.6;10.0;100.0;0.0;-2.08;0.0
53001;2501661;2019-12-30 19:05:00;78.4039;-1.1223;G;0.0;0.6;989.7;-6.7;10.0;100.0;0.0;-2.08;0.0
53001;2501661;2019-12-30 18:05:00;78.4061;-1.1847;G;0.0;0.4;989.4;-6.8;10.0;100.0;0.0;-2.08;0.0
53001;2501661;2019-12-30 17:05:00;78.403;-1.2384;G;0.0;0.5;989.0;-6.9;10.0;100.0;0.0;-2.0;0.0
53001;2501661;2019-12-30 16:05:00;78.3975;-1.2705;G;0.0;0.8;989.1;-7.0;10.0;100.0;0.0;-2.08;0.0
53001;2501661;2019-12-30 15:05:00;78.3933;-1.285;G;0.0;0.7;989.0;-7.0;10.0;100.0;0.0;-2.0;0.0
53001;2501661;2019-12-30 14:05:00;78.3922;-1.2895;G;0.0;0.5;988.5;-7.2;10.0;100.0;0.0;-2.0;0.0
53001;2501661;2019-12-30 13:04:00;78.3945;-1.2869;G;0.0;0.2;988.3;-7.3;10.0;100.0;0.0;-2.0;0.0
53001;2501661;2019-12-30 12:04:00;78.3991;-1.2768;G;0.0;-0.2;988.3;-7.5;10.0;100.0;0.0;-2.0;0.0
53001;2501661;2019-12-30 11:04:00;78.4077;-1.2619;G;0.0;-1.0;988.0;-7.6;10.0;100.0;0.0;-2.0;0.0
53001;2501661;2019-12-30 10:04:00;78.4243;-1.2587;G;0.0;-1.2;988.1;-7.8;10.0;100.0;0.0;-1.92;0.0
53001;2501661;2019-12-30 09:05:00;78.4432;-1.2845;G;0.0;-1.1;988.5;-7.9;10.0;100.0;0.0;-2.0;0.0
53001;2501661;2019-12-30 08:05:00;78.4578;-1.3397;G;0.0;-1.2;989.0;-8.0;10.0;100.0;0.0;-1.92;0.0
53001;2501661;2019-12-30 07:05:00;78.469;-1.3916;G;0.0;-0.9;989.3;-8.1;10.0;100.0;0.0;-1.92;0.0
53001;2501661;2019-12-30 06:05:00;78.4785;-1.4396;G;0.0;-1.2;989.6;-8.3;10.0;100.0;0.0;-1.92;0.0
53001;2501661;2019-12-30 05:05:00;78.4871;-1.4867;G;0.0;-1.1;990.2;-8.4;10.0;100.0;0.0;-1.92;0.0
53001;2501661;2019-12-30 04:04:00;78.4955;-1.5354;G;0.0;-1.6;990.2;-8.6;10.0;100.0;0.0;-1.92;0.0
53001;2501661;2019-12-30 03:04:00;78.5046;-1.5818;G;0.0;-1.3;990.8;-8.7;10.0;100.0;0.0;-1.92;0.0
53001;2501661;2019-12-30 02:04:00;78.5151;-1.6253;G;0.0;-1.3;991.3;-8.9;10.0;100.0;0.0;-1.92;0.0
53001;2501661;2019-12-30 01:04:00;78.5242;-1.6692;G;0.0;-1.0;991.8;-9.1;10.0;100.0;0.0;-1.92;0.0
53001;2501661;2019-12-30 00:04:00;78.5327;-1.7099;G;0.0;-1.2;992.1;-9.2;10.0;100.0;0.0;-1.92;0.0
53001;2501661;2019-12-29 23:05:00;78.5413;-1.7389;G;0.0;-1.0;992.6;-9.5;10.0;100.0;0.0;-1.92;0.0
53001;2501661;2019-12-29 22:05:00;78.5495;-1.7621;G;0.0;-1.0;992.8;-9.7;10.0;100.0;0.0;-1.92;0.0
53001;2501661;2019-12-29 21:05:00;78.5558;-1.7884;G;0.0;-0.8;993.3;-9.8;10.0;100.0;0.0;-1.92;0.0
53001;2501661;2019-12-29 20:05:00;78.5621;-1.8173;G;0.0;-1.1;993.6;-10.0;10.0;100.0;0.0;-1.92;0.0
53001;2501661;2019-12-29 19:04:00;78.5692;-1.8536;G;0.0;-1.5;993.8;-10.3;10.0;100.0;0.0;-1.92;0.0
53001;2501661;2019-12-29 18:04:00;78.5756;-1.8802;G;0.0;-1.8;994.1;-10.5;10.0;100.0;0.0;-1.92;0.0
53001;2501661;2019-12-29 17:04:00;78.5798;-1.9001;G;0.0;-2.0;994.7;-10.8;10.0;100.0;0.0;-1.92;0.0
53001;2501661;2019-12-29 16:04:00;78.5827;-1.9169;G;0.0;-1.7;995.3;-11.2;10.0;100.0;0.0;-1.92;0.0
53001;2501661;2019-12-29 15:05:00;78.5852;-1.9264;G;0.0;-1.5;995.9;-11.5;10.0;100.0;0.0;-1.92;0.0
53001;2501661;2019-12-29 14:05:00;78.5882;-1.9326;G;0.0;-1.0;996.7;-11.8;10.0;100.0;0.0;-1.92;0.0
53001;2501661;2019-12-29 13:05:00;78.5913;-1.9326;G;0.0;-1.4;997.0;-12.1;10.0;100.0;0.0;-1.92;0.0
53001;2501661;2019-12-29 12:05:00;78.5966;-1.9268;G;0.0;-1.4;997.4;-12.3;10.0;100.0;0.0;-1.92;0.0
53001;2501661;2019-12-29 11:05:00;78.6038;-1.9136;G;0.0;-1.0;997.7;-12.4;10.0;100.0;0.0;-2.0;0.0
53001;2501661;2019-12-29 10:05:00;78.6126;-1.897;G;0.0;-0.8;998.4;-12.4;10.0;100.0;0.0;-2.16;0.0
53001;2501661;2019-12-29 09:04:00;78.6234;-1.8838;G;0.0;-0.6;998.8;-12.3;10.0;100.0;0.0;-8.64;0.0
53001;2501661;2019-12-29 08:04:00;78.6352;-1.8768;G;0.0;-1.0;998.7;-12.2;10.0;100.0;0.0;-8.64;0.0
53001;2501661;2019-12-29 07:04:00;78.6469;-1.8754;G;0.0;-0.7;999.2;-12.1;10.0;100.0;0.0;-8.56;0.0
53001;2501661;2019-12-29 06:04:00;78.6574;-1.8768;G;0.0;-0.9;999.4;-12.0;10.0;100.0;0.0;-8.56;0.0
53001;2501661;2019-12-29 05:05:00;78.6672;-1.8831;G;0.0;-0.9;999.7;-11.9;10.0;100.0;0.0;-8.56;0.0
53001;2501661;2019-12-29 04:05:00;78.6747;-1.8945;G;0.0;-1.1;999.9;-11.8;10.0;100.0;0.0;-8.48;0.0
53001;2501661;2019-12-29 03:05:00;78.6813;-1.9035;G;0.0;-0.9;1000.3;-11.7;10.0;100.0;0.0;-8.56;0.0
53001;2501661;2019-12-29 02:05:00;78.6882;-1.9099;G;0.0;-0.8;1000.6;-12.0;10.0;100.0;0.0;-8.48;0.0
53001;2501661;2019-12-29 01:05:00;78.6958;-1.9116;G;0.0;-1.0;1001.0;-11.5;10.0;100.0;0.0;-8.48;0.0
53001;2501661;2019-12-29 00:05:00;78.7049;-1.9049;G;0.0;-1.3;1001.2;-11.5;10.0;100.0;0.0;-8.48;0.0
53001;2501661;2019-12-28 23:04:00;78.7161;-1.8898;G;0.0;-1.2;1001.4;-11.4;10.0;100.0;0.0;-8.48;0.0
53001;2501661;2019-12-28 22:04:00;78.7286;-1.8713;G;0.0;-0.7;1002.0;-11.4;10.0;100.0;0.0;-8.48;0.0
53001;2501661;2019-12-28 21:04:00;78.7423;-1.8531;G;0.0;-0.6;1002.5;-11.4;10.0;100.0;0.0;-8.48;0.0
53001;2501661;2019-12-28 20:04:00;78.7563;-1.838;G;0.0;-0.9;1002.6;-11.3;10.0;100.0;0.0;-8.48;0.0
53001;2501661;2019-12-28 19:05:00;78.7693;-1.8294;G;0.0;-1.3;1002.7;-11.2;10.0;100.0;0.0;-8.48;0.0
53001;2501661;2019-12-28 18:05:00;78.78;-1.8264;G;0.0;-1.7;1003.1;-11.1;10.0;100.0;0.0;-8.48;0.0
53001;2501661;2019-12-28 17:05:00;78.7884;-1.8249;G;0.0;-1.6;1003.5;-11.0;10.0;100.0;0.0;-8.48;0.0
53001;2501661;2019-12-28 16:05:00;78.7948;-1.8226;G;0.0;-1.7;1004.0;-11.0;10.0;100.0;0.0;-8.48;0.0
53001;2501661;2019-12-28 15:05:00;78.8006;-1.8169;G;0.0;-1.4;1004.8;-10.9;10.0;100.0;0.0;-8.48;0.0
53001;2501661;2019-12-28 14:05:00;78.8067;-1.8041;G;0.0;-1.7;1005.1;-10.8;10.0;100.0;0.0;-8.48;0.0
53001;2501661;2019-12-28 13:04:00;78.8138;-1.7829;G;0.0;-1.4;1005.7;-10.8;10.0;100.0;0.0;-8.48;0.0
53001;2501661;2019-12-28 12:04:00;78.8221;-1.754;G;0.0;-1.3;1006.2;-10.7;10.0;100.0;0.0;-8.48;0.0
53001;2501661;2019-12-28 11:04:00;78.8336;-1.7157;G;0.0;-0.9;1006.8;-10.7;10.0;100.0;0.0;-8.48;0.0
53001;2501661;2019-12-28 10:04:00;78.8494;-1.6701;G;0.0;-0.8;1007.1;-10.7;10.0;100.0;0.0;-8.48;0.0
53001;2501661;2019-12-28 09:05:00;78.8679;-1.6259;G;0.0;-0.9;1007.5;-10.6;10.0;100.0;0.0;-8.48;0.0
53001;2501661;2019-12-28 08:05:00;78.8865;-1.5877;G;0.0;-0.9;1007.7;-10.6;10.0;100.0;0.0;-8.48;0.0
53001;2501661;2019-12-28 07:05:00;78.9039;-1.5559;G;0.0;-0.8;1007.9;-10.6;10.0;100.0;0.0;-8.56;0.0
53001;2501661;2019-12-28 06:05:00;78.9187;-1.53;G;0.0;-0.5;1008.4;-10.6;10.0;100.0;0.0;-8.56;0.0
53001;2501661;2019-12-28 05:05:00;78.931;-1.5062;G;0.0;0.0;1008.6;-10.7;10.0;100.0;0.0;-8.56;0.0
53001;2501661;2019-12-28 04:05:00;78.9418;-1.4811;G;0.0;0.2;1008.7;-10.7;10.0;100.0;0.0;-8.64;0.0
53001;2501661;2019-12-28 03:04:00;78.9537;-1.4431;G;0.0;0.5;1008.9;-10.7;10.0;100.0;0.0;-8.64;0.0
53001;2501661;2019-12-28 02:04:00;78.9662;-1.3882;G;0.0;0.1;1008.6;-10.7;10.0;100.0;0.0;-8.72;0.0
53001;2501661;2019-12-28 01:04:00;78.9808;-1.3232;G;0.0;-0.2;1008.5;-10.7;10.0;100.0;0.0;-8.72;0.0
53001;2501661;2019-12-28 00:05:00;78.9973;-1.2541;G;0.0;-0.1;1008.4;-10.6;10.0;100.0;0.0;-8.8;0.0
53001;2501661;2019-12-27 23:05:00;79.0172;-1.1784;G;0.0;0.0;1008.5;-10.7;10.0;100.0;0.0;-8.8;0.0
53001;2501661;2019-12-27 22:05:00;79.0389;-1.0992;G;0.0;0.1;1008.7;-10.7;10.0;100.0;0.0;-8.88;0.0
53001;2501661;2019-12-27 21:05:00;79.06;-1.0301;G;0.0;0.7;1008.5;-10.7;10.0;100.0;0.0;-8.96;0.0
53001;2501661;2019-12-27 20:05:00;79.0794;-0.9681;G;0.0;0.8;1008.5;-10.8;10.0;100.0;0.0;-9.04;0.0
53001;2501661;2019-12-27 19:05:00;79.0955;-0.914;G;0.0;0.6;1008.6;-10.8;10.0;100.0;0.0;-9.12;0.0
53001;2501661;2019-12-27 18:05:00;79.1068;-0.8616;G;0.0;-0.3;1007.8;-10.9;10.0;100.0;0.0;-9.12;0.0
53001;2501661;2019-12-27 17:04:00;79.1129;-0.8078;G;0.0;-0.8;1007.7;-11.0;10.0;100.0;0.0;-9.2;0.0
53001;2501661;2019-12-27 16:04:00;79.1148;-0.7438;G;0.0;-0.9;1008.0;-11.0;10.0;100.0;0.0;-9.36;0.0
53001;2501661;2019-12-27 15:04:00;79.1166;-0.6666;G;0.0;-1.1;1008.1;-11.2;10.0;100.0;0.0;-9.36;0.0
53001;2501661;2019-12-27 14:05:00;79.1194;-0.5761;G;0.0;-0.9;1008.5;-11.2;10.0;100.0;0.0;-9.44;0.0
53001;2501661;2019-12-27 13:05:00;79.1271;-0.4848;G;0.0;-1.1;1008.9;-11.4;10.0;100.0;0.0;-9.6;0.0
53001;2501661;2019-12-27 12:05:00;79.1382;-0.4148;G;0.0;-1.2;1009.2;-11.5;10.0;100.0;0.0;-9.68;0.0
53001;2501661;2019-12-27 11:05:00;79.1499;-0.375;G;0.0;-0.9;1009.4;-11.7;10.0;100.0;0.0;-9.84;0.0
53001;2501661;2019-12-27 10:05:00;79.1605;-0.3661;G;0.0;-0.1;1010.0;-11.9;10.0;100.0;0.0;-10.0;0.0
53001;2501661;2019-12-27 09:04:00;79.1684;-0.3781;G;0.0;1.2;1010.4;-12.0;10.0;100.0;0.0;-10.0;0.0
53001;2501661;2019-12-27 08:04:00;79.1724;-0.4035;G;0.0;1.8;1010.3;-12.2;10.0;100.0;0.0;-10.16;0.0
53001;2501661;2019-12-27 07:05:00;79.172;-0.4403;G;0.0;0.5;1010.1;-12.5;10.0;100.0;0.0;-10.32;0.0
53001;2501661;2019-12-27 06:04:00;79.1669;-0.4698;G;0.0;-1.2;1009.2;-12.7;10.0;100.0;0.0;-10.32;0.0
53001;2501661;2019-12-27 05:04:00;79.1626;-0.4284;G;0.0;-3.0;1008.5;-12.9;10.0;100.0;0.0;-10.48;0.0